[[{"header":{"parameterUnit":"m.s-1","parameterCategory":1,"la1":30.2991,"la2":30.254,"lo1":-89.0895,"lo2":-89.0444,"dy":0.0017,"dx":0.0017,"nx":28,"ny":28,"refTime":"2023-09-13T21:00:00:Z","depth":0,"parameterNumber":2,"parameterNumberName":"U-component_of_WINDS"},"data":[0,0,0,0,0,0,0,0,0,0,0,0,0,0,0,0,0,0,0,0,0,0,0,0,0,0,0,0,0,0,0,0,0,0,0,0,0,0,0,0,0,0,0,0,0,0,0,0,0,0,0,0,0,0,0,0,0,0,1.2522,1.2523,0,1.2672,1.2674,1.2675,1.2718,1.2718,1.2717,1.2716,1.2871,1.2876,1.2881,0,0,0,0,0,0,0,0,0,0,0,0,0,1.2272,1.2277,1.2521,1.2523,1.2525,1.2672,1.2674,1.2676,1.2719,1.2718,1.2717,1.2716,1.287,1.2875,1.2881,0,0,0,0,0,0,0,0,0,0,0,0,0,1.2397,1.2278,1.2521,1.2564,1.257,1.2671,1.2674,1.2676,1.2719,1.2718,1.2716,1.2715,1.2868,1.2875,1.2882,1.2952,0,0,1.2904,1.2908,0,0,0,0,0,0,0,0,1.239,1.2406,1.2556,1.2561,1.2568,1.2675,1.2643,1.2769,1.2719,1.2662,1.2716,1.2715,1.2807,1.2819,1.285,1.2959,1.2966,1.2905,1.2909,1.2913,1.2915,0,0,0,0,0,0,0,1.2381,1.24,1.2581,1.2558,1.2565,1.2576,1.2593,1.2667,1.274,1.2667,1.2671,1.2688,1.281,1.2843,1.2854,1.2968,1.2905,1.2911,1.2916,1.2919,1.3142,1.3143,0,0,0,0,0,0,1.2365,1.2393,1.2576,1.2586,1.2474,1.2582,1.26,1.2642,1.2739,1.2753,1.2689,1.2689,1.2831,1.2846,1.286,1.2947,1.2913,1.2919,1.2924,1.314,1.3142,1.3144,0,0,0,0,0,0,1.236,1.2381,1.257,1.249,1.2515,1.2587,1.2634,1.2646,1.2679,1.2755,1.2769,1.2709,1.2831,1.2849,1.2929,1.2953,1.2923,1.2929,1.3138,1.3141,1.3143,1.3123,0,0,0,0,0,0,1.2352,1.2379,1.2406,1.249,1.2519,1.2636,1.2636,1.2649,1.2691,1.2693,1.2778,1.2791,1.2831,1.2917,1.2936,1.2963,1.2935,1.3137,1.3139,1.3142,1.3122,1.3125,1.3127,0,0,0,0,0,1.2343,1.2395,1.2407,1.2429,1.2554,1.2637,1.2654,1.2699,1.2693,1.2721,1.277,1.2788,1.2948,1.2925,1.2946,1.2976,1.3135,1.3139,1.3142,1.3121,1.3124,1.3127,0,0,0,0,0,0,1.2312,1.2407,1.2421,1.2502,1.2561,1.2644,1.2681,1.2701,1.2764,1.2763,1.2817,1.2836,1.2911,1.2952,1.2924,1.3049,1.3042,1.305,1.3019,1.3023,1.3025,1.3013,1.2941,0,0,0,0,0,1.2314,1.2373,1.2453,1.2516,1.2545,1.2608,1.2646,1.2675,1.2739,1.2765,1.282,1.2881,1.2945,1.2987,1.305,1.3129,1.3148,1.316,1.3162,1.3164,1.3169,1.3214,1.322,1.3155,1.3155,1.3155,0,0,1.2319,1.2379,1.2413,1.2511,1.2561,1.2621,1.2629,1.2692,1.2737,1.2775,1.2852,1.2895,1.2967,1.3046,1.3084,1.3082,1.3192,1.3168,1.3169,1.3174,1.3218,1.3224,1.3229,1.3157,1.3157,1.3156,0,0,1.236,1.2411,1.2469,1.2518,1.2593,1.2634,1.2648,1.2729,1.2758,1.2837,1.2866,1.2921,1.303,1.308,1.312,1.318,1.3198,1.3199,1.3211,1.3254,1.3259,1.3264,1.3284,1.3291,1.3205,1.3205,1.3205,0,1.2357,1.2448,1.2496,1.2558,1.26,1.2637,1.2695,1.2741,1.2833,1.2861,1.2859,1.2997,1.3048,1.3139,1.3153,1.3185,1.3202,1.3189,1.3254,1.3259,1.3265,1.3285,1.3292,1.3204,1.3204,1.3204,1.3204,0,1.2441,1.2504,1.2542,1.2629,1.2676,1.2736,1.2792,1.2834,1.286,1.2902,1.2981,1.3044,1.3121,1.3145,1.3171,1.324,1.3237,1.3243,1.3238,1.3269,1.3289,1.3297,1.3204,1.3204,1.3204,1.3204,0,0,1.2464,1.2577,1.259,1.263,1.2715,1.2765,1.2827,1.2901,1.2936,1.2998,1.3051,1.3143,1.315,1.3195,1.3227,1.3265,1.3307,1.3267,1.327,1.3271,1.3386,1.3379,1.3387,1.332,1.3322,1.3323,1.3379,0,1.2514,1.2625,1.267,1.2761,1.2819,1.2855,1.2909,1.2967,1.3008,1.3064,1.3109,1.3173,1.3178,1.3205,1.3244,1.3293,1.333,1.329,1.337,1.3372,1.3349,1.3398,1.3391,1.344,1.3387,1.3389,1.339,0,1.2587,1.2649,1.2745,1.2823,1.285,1.2897,1.2969,1.3022,1.3089,1.3116,1.3167,1.3197,1.3263,1.3254,1.3346,1.3318,1.3353,1.3383,1.3386,1.3394,1.3382,1.3406,1.3458,1.3464,1.3403,1.3401,1.3401,0,1.2593,1.2701,1.2772,1.2806,1.2899,1.2931,1.2972,1.3038,1.3079,1.3143,1.317,1.324,1.3278,1.3332,1.338,1.3369,1.3468,1.3463,1.3492,1.3491,1.351,1.3508,1.3567,1.3535,1.3534,1.3534,1.3534,0,1.2643,1.27,1.2776,1.282,1.2885,1.2936,1.2999,1.3042,1.3101,1.3154,1.319,1.3238,1.33,1.3357,1.3395,1.3465,1.3483,1.3506,1.3515,1.3502,1.3499,1.3525,1.3523,1.3536,1.3536,1.3536,1.3535,0,1.266,1.2713,1.2793,1.2875,1.2897,1.2941,1.3012,1.3055,1.3098,1.3165,1.3183,1.325,1.3319,1.3373,1.3463,1.3489,1.3562,1.3573,1.3539,1.3544,1.3569,1.3566,1.3646,1.3659,1.3619,1.3619,1.362,0,1.2688,1.2733,1.2819,1.2857,1.2897,1.2958,1.3001,1.3053,1.3096,1.3176,1.321,1.3282,1.3341,1.345,1.3507,1.3575,1.3588,1.3611,1.3598,1.3583,1.3587,1.3583,1.3588,1.3612,1.3612,1.3612,1.3613,0,1.2732,1.2756,1.2816,1.2886,1.2936,1.2993,1.3051,1.308,1.3144,1.319,1.3261,1.3307,1.3399,1.3469,1.3544,1.3586,1.361,1.3616,1.3627,1.3613,1.3591,1.3602,1.3542,1.3614,1.3614,1.3614,1.3614,1.3614,1.2754,1.2796,1.2863,1.2929,1.2978,1.3032,1.3077,1.3125,1.3185,1.3263,1.3291,1.3363,1.343,1.3533,1.3575,1.3633,1.3634,1.3649,1.3653,1.3655,1.3653,1.3583,1.3647,1.3647,1.3647,1.3647,1.3647,0,1.2799,1.2844,1.2904,1.2984,1.3036,1.3055,1.312,1.3162,1.3225,1.3285,1.3343,1.3424,1.3492,1.3555,1.3626,1.366,1.3673,1.3677,1.3675,1.3684,1.3649,1.3632,1.3666,1.3666,1.3666,1.3666,1.3666,1.3666,1.2828,1.2898,1.2931,1.3026,1.3071,1.3142,1.3178,1.3228,1.3276,1.3364,1.3421,1.3461,1.3522,1.3599,1.3662,1.3679,1.3703,1.3704,1.3723,1.3689,1.3686,1.3684,1.3669,1.3709,1.3709,1.3754,1.3754,1.3754]},{"header":{"parameterUnit":"m.s-1","parameterCategory":1,"la1":30.2991,"la2":30.254,"lo1":-89.0895,"lo2":-89.0444,"dy":0.0017,"dx":0.0017,"nx":28,"ny":28,"refTime":"2023-09-13T21:00:00:Z","depth":0,"parameterNumber":3,"parameterNumberName":"V-component_of_WINDS"},"data":[0,0,0,0,0,0,0,0,0,0,0,0,0,0,0,0,0,0,0,0,0,0,0,0,0,0,0,0,0,0,0,0,0,0,0,0,0,0,0,0,0,0,0,0,0,0,0,0,0,0,0,0,0,0,0,0,0,0,2.5091,2.509,0,2.5024,2.5023,2.5022,2.4963,2.4962,2.4962,2.4961,2.4887,2.4885,2.4884,0,0,0,0,0,0,0,0,0,0,0,0,0,2.5163,2.5162,2.5091,2.509,2.5089,2.5024,2.5023,2.5022,2.4963,2.4962,2.4961,2.4961,2.4887,2.4885,2.4884,0,0,0,0,0,0,0,0,0,0,0,0,0,2.5118,2.5162,2.5091,2.5052,2.5048,2.5024,2.5023,2.5022,2.4963,2.4962,2.4961,2.496,2.4888,2.4886,2.4884,2.4891,0,0,2.4877,2.4877,0,0,0,0,0,0,0,0,2.512,2.5115,2.5059,2.5055,2.505,2.5001,2.5021,2.4978,2.4963,2.4995,2.4961,2.496,2.4925,2.492,2.4909,2.4888,2.4885,2.4877,2.4876,2.4875,2.4875,0,0,0,0,0,0,0,2.5123,2.5117,2.5064,2.5058,2.5053,2.5036,2.5029,2.5013,2.4966,2.4992,2.4988,2.4981,2.4922,2.4911,2.4907,2.4883,2.4877,2.4875,2.4874,2.4873,2.4864,2.4864,0,0,0,0,0,0,2.5133,2.5121,2.5066,2.5062,2.5084,2.5036,2.5027,2.5018,2.4966,2.4958,2.4982,2.4979,2.4915,2.491,2.4904,2.4909,2.4875,2.4873,2.4872,2.4863,2.4864,2.4865,0,0,0,0,0,0,2.5135,2.5129,2.5069,2.509,2.5081,2.5036,2.5025,2.5017,2.5006,2.4959,2.495,2.498,2.4914,2.4907,2.4895,2.4906,2.4872,2.487,2.4861,2.4863,2.4864,2.4919,0,0,0,0,0,0,2.5137,2.513,2.5134,2.5091,2.508,2.5063,2.5026,2.5016,2.5003,2.4998,2.4954,2.4946,2.4913,2.4898,2.4893,2.4902,2.4869,2.486,2.4862,2.4864,2.4916,2.4923,2.4928,0,0,0,0,0,2.514,2.5151,2.5134,2.5128,2.5084,2.5064,2.5057,2.5021,2.5004,2.5006,2.4976,2.4947,2.4906,2.4898,2.4891,2.49,2.4859,2.4862,2.4864,2.4914,2.4921,2.4928,0,0,0,0,0,0,2.5194,2.5145,2.5125,2.5123,2.5098,2.5054,2.5056,2.503,2.5008,2.5004,2.4959,2.4949,2.4942,2.492,2.4912,2.4904,2.4878,2.4879,2.4919,2.4926,2.4931,2.4936,2.4867,0,0,0,0,0,2.5207,2.5195,2.5152,2.5153,2.5142,2.5101,2.5091,2.5065,2.5037,2.5026,2.4994,2.4967,2.4947,2.4935,2.4915,2.4913,2.4902,2.4916,2.4922,2.4927,2.4928,2.4924,2.4929,2.4872,2.4872,2.4872,0,0,2.523,2.5202,2.5197,2.5164,2.5141,2.513,2.5093,2.5082,2.5072,2.5023,2.501,2.4987,2.4952,2.4946,2.4941,2.4927,2.4941,2.4929,2.4934,2.4932,2.4927,2.4932,2.4937,2.4873,2.4873,2.4873,0,0,2.5268,2.5246,2.5245,2.5223,2.5191,2.5164,2.5164,2.5123,2.5106,2.5093,2.5056,2.5043,2.5011,2.4988,2.4972,2.5001,2.4973,2.4995,2.5025,2.5022,2.5026,2.503,2.504,2.5044,2.4997,2.4997,2.4997,0,2.5301,2.5283,2.5247,2.5238,2.5224,2.5182,2.5179,2.516,2.5122,2.5112,2.5097,2.5056,2.503,2.5017,2.5024,2.5013,2.501,2.5,2.5029,2.5032,2.5035,2.5044,2.5048,2.5,2.4999,2.4999,2.4999,0,2.5325,2.5313,2.5316,2.5283,2.5269,2.5263,2.5224,2.5214,2.519,2.5164,2.515,2.5118,2.509,2.5085,2.506,2.5068,2.506,2.5038,2.5011,2.5044,2.5052,2.5055,2.5004,2.5003,2.5002,2.5001,0,0,2.5394,2.5341,2.5342,2.5327,2.5288,2.5277,2.5269,2.5244,2.5236,2.5211,2.5202,2.5176,2.5155,2.5137,2.511,2.5107,2.5132,2.5085,2.5083,2.5094,2.5137,2.5153,2.5158,2.5113,2.5114,2.5114,2.5139,0,2.5424,2.541,2.5377,2.5371,2.5359,2.5319,2.5312,2.5287,2.5262,2.5247,2.5219,2.5201,2.5175,2.5164,2.516,2.513,2.5139,2.5127,2.5103,2.5102,2.5112,2.5162,2.5179,2.5204,2.5142,2.5142,2.5143,0,2.5457,2.5437,2.5432,2.5394,2.5387,2.5382,2.5355,2.5342,2.5312,2.5294,2.5275,2.5245,2.5232,2.5209,2.519,2.5183,2.5171,2.5154,2.5154,2.5149,2.5124,2.5157,2.5212,2.5215,2.5147,2.5146,2.5146,0,2.5507,2.5478,2.5471,2.5459,2.5414,2.5411,2.5392,2.5361,2.5348,2.5325,2.5315,2.529,2.5276,2.5256,2.522,2.5206,2.5205,2.5178,2.5188,2.5189,2.5189,2.5189,2.5241,2.5183,2.5183,2.5183,2.5183,0,2.5544,2.5542,2.5493,2.5488,2.5484,2.5446,2.5442,2.5419,2.5392,2.5381,2.5344,2.5334,2.5287,2.5271,2.5242,2.5231,2.5224,2.5208,2.52,2.5211,2.5213,2.5202,2.5199,2.5184,2.5183,2.5183,2.5183,0,2.5599,2.5566,2.5555,2.5515,2.5505,2.5503,2.5468,2.5461,2.5434,2.5421,2.5415,2.5373,2.5352,2.5315,2.5282,2.5263,2.5257,2.5244,2.5268,2.5263,2.5275,2.5274,2.532,2.5324,2.5265,2.5265,2.5266,0,2.5624,2.5622,2.5582,2.5573,2.5556,2.5541,2.5528,2.549,2.5477,2.5443,2.544,2.5417,2.5396,2.5365,2.533,2.5305,2.529,2.5308,2.5286,2.5297,2.5289,2.529,2.5289,2.5313,2.5314,2.5315,2.5315,0,2.5672,2.5656,2.564,2.5618,2.5603,2.5584,2.5562,2.5556,2.5512,2.5499,2.5479,2.5463,2.5431,2.5408,2.5379,2.5356,2.5328,2.5323,2.5324,2.5334,2.5348,2.534,2.5281,2.5322,2.5321,2.532,2.532,2.532,2.5712,2.5708,2.568,2.5662,2.5642,2.5623,2.5614,2.5588,2.5571,2.5543,2.5521,2.5502,2.5471,2.5428,2.5408,2.5391,2.5378,2.5379,2.5379,2.538,2.5384,2.5352,2.5386,2.5385,2.5385,2.5385,2.5385,0,2.5758,2.5738,2.5722,2.5694,2.568,2.5657,2.5631,2.562,2.5605,2.5579,2.5561,2.5536,2.5514,2.5478,2.5452,2.5445,2.5432,2.544,2.5439,2.5435,2.5398,2.54,2.5451,2.5451,2.5451,2.5451,2.5451,2.5451,2.578,2.5772,2.5753,2.5734,2.5713,2.5696,2.5683,2.5664,2.5644,2.5619,2.5601,2.5579,2.5548,2.552,2.5498,2.5488,2.5479,2.5492,2.5477,2.5443,2.5437,2.5431,2.5433,2.549,2.549,2.5515,2.5515,2.5515]}]]